Flag for U.S.A. Weather past 2 weeks in Peoria, Illinois, U.S.A.

Now
56 °F

Sunny.


Feels Like: 54 °F
Forecast: 46 / 65 °F
Wind: 8 mph from Northwest

Location: Greater Peoria Regional Airport

Current Time: Mar 31, 2015 at 11:11:56 AM

Latest Report: Mar 31, 2015 at 9:54 AM


Visibility: 10 mi

Pressure: 29.94 "Hg

Humidity: 47%

Dew point: 36 °F

Location of PeoriaLocation

Historic Weather in Peoria — Graph

°F

Peoria temperature yesterday

Maximum temperature yesterday: 71 °F (at 3:54 PM)
Minimum temperature yesterday: 36 °F (at 6:54 AM)
Average temperature yesterday: 55 °F

Past Weeks' High & Low Weather Summary

 TemperatureHumidityPressure
High78 °F (Mar 16, 1:54 PM)97% (Mar 21, 6:54 AM)30.37 "Hg (Mar 21, 6:54 AM)
Low23 °F (Mar 28, 3:54 AM)20% (Mar 30, 3:54 PM)29.80 "Hg (Mar 31, 2:54 AM)
Average43 °F58%30.13 "Hg
* Reported Mar 16 9:54 AM — Mar 31 9:54 AM, Peoria, Weather by CustomWeather, © 2015

Note: Actual official high and low records may vary slightly from our data, if they occured in-between our weather recording intervals... More about our weather records

Advertising

Peoria weather history for previous 24 hours

 ConditionsComfort  
Time TempWeatherWind HumidityBarometerVisibility
9:54 AM
Tue, Mar 31
56 °FSunny.8 mph47%29.94 "Hg10 mi
8:54 AM53 °FSunny.12 mph52%29.92 "Hg10 mi
7:54 AM51 °FSunny.7 mph54%29.90 "Hg10 mi
6:54 AM49 °FClear.6 mph57%29.87 "Hg10 mi
5:54 AM52 °FClear.8 mph50%29.84 "Hg10 mi
4:54 AM54 °FClear.10 mph47%29.81 "Hg10 mi
3:54 AM56 °FClear.12 mph44%29.80 "Hg10 mi
2:54 AM58 °FClear.14 mph39%29.80 "Hg10 mi
1:54 AM53 °FClear.12 mph47%29.81 "Hg10 mi
12:54 AM54 °FClear.13 mph45%29.83 "Hg10 mi
11:54 PM
Mon, Mar 30
53 °FClear.12 mph47%29.85 "Hg10 mi
10:54 PM56 °FClear.12 mph40%29.88 "Hg10 mi
9:54 PM58 °FClear.14 mph38%29.90 "Hg10 mi
8:54 PM57 °FClear.10 mph41%29.93 "Hg10 mi
7:54 PM60 °FSunny.10 mph35%29.93 "Hg10 mi
6:54 PM67 °FSunny.14 mph25%29.92 "Hg10 mi
5:54 PM69 °FSunny.16 mph22%29.92 "Hg10 mi
4:54 PM70 °FPassing clouds.12 mph22%29.95 "Hg10 mi
3:54 PM71 °FSunny.12 mph20%29.98 "Hg10 mi
2:54 PM68 °FSunny.8 mph21%30.01 "Hg10 mi
1:54 PM69 °FSunny.12 mph21%30.04 "Hg10 mi
12:54 PM66 °FSunny.20 mph23%30.07 "Hg10 mi
11:54 AM64 °FSunny.13 mph26%30.09 "Hg10 mi
Weather by CustomWeather, © 2015

See weather overviewHow to use our weather pages